Weather History for KBIX - April, 2013

Change the Weather History Date:

Thursday, April 18, 2013

  Actual Average Record
Temperature  
Mean Temperature 75 °F -  
Max Temperature 79 °F 76 °F 86 °F (1967)
Min Temperature 71 °F 60 °F 42 °F (2001)
Cooling Degree Days 10    
Growing Degree Days 25 (Base 50)    
Moisture  
Dew Point 71 °F    
Average Humidity 87    
Maximum Humidity 94    
Minimum Humidity 74    
Precipitation  
Precipitation 0.00 in - - ()
Sea Level Pressure  
Sea Level Pressure 29.89 in    
Wind  
Wind Speed 11 mph (SSE)    
Max Wind Speed 16 mph    
Max Gust Speed 23 mph    
Visibility 10 miles    
Events      
Averages and records for this station are not official NWS values.
T = Trace of Precipitation, MM = Missing Value Source: NWS Daily Summary

Daily Weather History Graph

Daily Weather History Graph

Search for Another Location

Airport or City:

Trip Planner

Search our weather history database for the weather conditions in past years. The results will help you decide how hot, cold, wet, or windy it might be!

Date:

Astronomy

Apr. 18, 2013 Rise Set
Actual Time 6:24 AM CDT 7:25 PM CDT
Civil Twilight 6:00 AM CDT 7:50 PM CDT
Nautical Twilight 5:30 AM CDT 8:19 PM CDT
Astronomical Twilight 5:00 AM CDT 8:49 PM CDT
Moon 12:41 PM CDT (4/18) 1:34 AM CDT (4/18)
Length of Visible Light 13h 50m
Length of Day
13h 00m
First Quarter, 52% of the Moon is Illuminated
Apr 18
First Quarter
Apr 25
Full
May 2
Last Quarter
May 9
New
May 17
First Quarter

Hourly Weather History & Observations

Time (CDT) Temp. Dew Point Humidity Pressure Visibility Wind Dir Wind Speed Gust Speed Precip Events Conditions
12:58 AM 72.0 °F 68.4 °F 88% 29.99 in 10.0 mi SSE 9.2 mph - N/A   Clear
1:58 AM 71.8 °F 68.7 °F 90% 29.98 in 10.0 mi SE 8.1 mph - N/A   Clear
2:33 AM 71.6 °F 68.0 °F 88% 29.95 in 10.0 mi SE 9.2 mph - N/A   Mostly Cloudy
2:58 AM 71.4 °F 68.7 °F 91% 29.95 in 10.0 mi SE 9.2 mph - N/A   Scattered Clouds
3:58 AM 71.2 °F 67.5 °F 88% 29.93 in 10.0 mi SE 9.2 mph 19.6 mph N/A   Clear
4:58 AM 71.1 °F 66.9 °F 87% 29.92 in 10.0 mi SE 9.2 mph - N/A   Clear
5:58 AM 71.1 °F 67.1 °F 87% 29.93 in 10.0 mi SE 11.5 mph 18.4 mph N/A   Partly Cloudy
6:28 AM 71.6 °F 68.0 °F 88% 29.92 in 10.0 mi SE 10.4 mph - N/A   Mostly Cloudy
6:58 AM 71.6 °F 67.6 °F 87% 29.94 in 10.0 mi SE 11.5 mph - N/A   Overcast
7:58 AM 72.5 °F 68.5 °F 87% 29.95 in 10.0 mi SE 11.5 mph - N/A   Overcast
8:58 AM 74.1 °F 68.7 °F 83% 29.95 in 10.0 mi SE 12.7 mph - N/A   Mostly Cloudy
9:58 AM 76.5 °F 69.3 °F 78% 29.94 in 10.0 mi SE 13.8 mph 21.9 mph N/A   Mostly Cloudy
10:43 AM 77.0 °F 69.8 °F 78% 29.93 in 10.0 mi SSE 15.0 mph 21.9 mph N/A   Scattered Clouds
10:58 AM 77.0 °F 69.8 °F 78% 29.94 in 10.0 mi SSE 16.1 mph 19.6 mph N/A   Mostly Cloudy
11:58 AM 77.0 °F 69.6 °F 78% 29.95 in 10.0 mi SE 12.7 mph 20.7 mph N/A   Mostly Cloudy
12:03 PM 77.0 °F 69.8 °F 78% 29.94 in 10.0 mi SE 12.7 mph 20.7 mph N/A   Overcast
12:08 PM 77.0 °F 69.8 °F 78% 29.93 in 10.0 mi SSE 12.7 mph 19.6 mph N/A   Overcast
12:43 PM 77.0 °F 69.8 °F 78% 29.93 in 10.0 mi SSE 11.5 mph 20.7 mph N/A   Mostly Cloudy
12:58 PM 79.3 °F 70.5 °F 74% 29.93 in 10.0 mi SSE 13.8 mph 19.6 mph N/A   Mostly Cloudy
1:08 PM 78.8 °F 69.8 °F 74% 29.92 in 10.0 mi SE 15.0 mph 19.6 mph N/A   Scattered Clouds
1:53 PM 78.8 °F 69.8 °F 74% 29.91 in 10.0 mi SSE 11.5 mph 20.7 mph N/A   Overcast
1:58 PM 78.6 °F 70.5 °F 76% 29.92 in 10.0 mi SSE 12.7 mph 18.4 mph N/A   Mostly Cloudy
2:58 PM 77.2 °F 70.9 °F 81% 29.90 in 10.0 mi SE 12.7 mph 18.4 mph N/A   Overcast
3:58 PM 76.5 °F 71.2 °F 84% 29.88 in 10.0 mi SSE 13.8 mph - N/A   Overcast
4:18 PM 77.0 °F 71.6 °F 83% 29.86 in 10.0 mi SSE 15.0 mph - N/A   Overcast
4:33 PM 77.0 °F 71.6 °F 83% 29.86 in 10.0 mi SE 11.5 mph 19.6 mph N/A   Overcast
4:48 PM 75.2 °F 71.6 °F 89% 29.86 in 10.0 mi SSE 11.5 mph 18.4 mph N/A   Overcast
4:53 PM 75.2 °F 71.6 °F 89% 29.86 in 10.0 mi SE 12.7 mph 18.4 mph N/A   Overcast
4:58 PM 75.2 °F 71.6 °F 89% 29.87 in 10.0 mi SE 10.4 mph 18.4 mph N/A   Overcast
5:03 PM 77.0 °F 71.6 °F 83% 29.87 in 10.0 mi SSE 12.7 mph 18.4 mph N/A   Overcast
5:08 PM 77.0 °F 71.6 °F 83% 29.87 in 10.0 mi SE 9.2 mph - N/A   Overcast
5:23 PM 77.0 °F 71.6 °F 83% 29.87 in 10.0 mi SE 11.5 mph - N/A   Overcast
5:28 PM 77.0 °F 71.6 °F 83% 29.87 in 10.0 mi SE 10.4 mph - N/A   Overcast
5:33 PM 77.0 °F 71.6 °F 83% 29.87 in 10.0 mi SSE 10.4 mph 17.3 mph N/A   Overcast
5:48 PM 75.2 °F 71.6 °F 89% 29.87 in 10.0 mi SE 9.2 mph 18.4 mph N/A   Overcast
5:53 PM 75.2 °F 71.6 °F 89% 29.87 in 10.0 mi SE 12.7 mph 18.4 mph N/A   Overcast
5:58 PM 75.7 °F 71.8 °F 87% 29.88 in 10.0 mi SSE 8.1 mph 18.4 mph N/A   Overcast
6:58 PM 75.4 °F 71.6 °F 88% 29.87 in 10.0 mi SSE 11.5 mph 17.3 mph N/A   Overcast
7:58 PM 75.0 °F 72.0 °F 90% 29.87 in 10.0 mi SSE 11.5 mph 19.6 mph N/A   Overcast
8:03 PM 75.2 °F 71.6 °F 89% 29.86 in 10.0 mi SSE 10.4 mph 19.6 mph N/A   Overcast
8:13 PM 75.2 °F 71.6 °F 89% 29.86 in 10.0 mi SSE 11.5 mph 18.4 mph N/A   Overcast
8:23 PM 75.2 °F 71.6 °F 89% 29.86 in 10.0 mi SSE 12.7 mph 19.6 mph N/A   Overcast
8:33 PM 75.2 °F 73.4 °F 94% 29.86 in 10.0 mi SSE 13.8 mph 18.4 mph N/A   Overcast
8:48 PM 75.2 °F 73.4 °F 94% 29.87 in 10.0 mi South 16.1 mph 23.0 mph N/A   Mostly Cloudy
8:53 PM 75.2 °F 73.4 °F 94% 29.87 in 10.0 mi SSE 12.7 mph 23.0 mph N/A   Mostly Cloudy
8:58 PM 75.4 °F 72.7 °F 91% 29.88 in 10.0 mi South 12.7 mph 23.0 mph N/A   Mostly Cloudy
9:03 PM 75.2 °F 73.4 °F 94% 29.88 in 10.0 mi South 11.5 mph - N/A   Overcast
9:08 PM 75.2 °F 73.4 °F 94% 29.87 in 10.0 mi South 15.0 mph - N/A   Overcast
9:13 PM 75.2 °F 73.4 °F 94% 29.87 in 10.0 mi SSE 11.5 mph - N/A   Mostly Cloudy
9:18 PM 75.2 °F 73.4 °F 94% 29.87 in 10.0 mi SSE 11.5 mph - N/A   Overcast
9:38 PM 75.2 °F 73.4 °F 94% 29.87 in 10.0 mi South 15.0 mph 19.6 mph N/A   Overcast
9:43 PM 75.2 °F 73.4 °F 94% 29.87 in 10.0 mi South 15.0 mph 19.6 mph N/A   Overcast
9:58 PM 75.6 °F 72.9 °F 91% 29.88 in 10.0 mi South 15.0 mph 21.9 mph N/A   Overcast
10:13 PM 75.2 °F 73.4 °F 94% 29.87 in 10.0 mi South 16.1 mph - N/A   Mostly Cloudy
10:18 PM 75.2 °F 73.4 °F 94% 29.88 in 10.0 mi South 16.1 mph - N/A   Mostly Cloudy
10:28 PM 75.2 °F 73.4 °F 94% 29.88 in 10.0 mi South 13.8 mph - N/A   Mostly Cloudy
10:38 PM 75.2 °F 73.4 °F 94% 29.88 in 10.0 mi South 10.4 mph 19.6 mph N/A   Overcast
10:43 PM 75.2 °F 73.4 °F 94% 29.88 in 10.0 mi South 11.5 mph 19.6 mph N/A   Overcast
10:48 PM 75.2 °F 73.4 °F 94% 29.88 in 10.0 mi South 12.7 mph - N/A   Overcast
10:53 PM 75.2 °F 73.4 °F 94% 29.88 in 10.0 mi South 12.7 mph 19.6 mph N/A   Overcast
10:58 PM 75.2 °F 72.9 °F 92% 29.89 in 10.0 mi South 11.5 mph 19.6 mph N/A   Mostly Cloudy
11:13 PM 75.2 °F 73.4 °F 94% 29.87 in 10.0 mi South 11.5 mph 18.4 mph N/A   Overcast
11:33 PM 75.2 °F 73.4 °F 94% 29.87 in 10.0 mi South 12.7 mph - N/A   Overcast
11:58 PM 75.2 °F 73.0 °F 93% 29.87 in 10.0 mi South 11.5 mph - N/A   Overcast